When you browse on this site, cookies collect data to enhance your experience and personalize the content and advertising you see.
Visit our Privacy Policy to learn more. By continuing to use the site, you agree to this use of cookies and data.
  • En España
  • Lista de países
  • Para 7 días
  • Temperatura del agua
  • El tiempo en el mapa
  • Informadores
  • user-avatar
    Iniciar sesión

    Tiempo cada hora Cervinia

    Hoy, 1 Junio, Lunes

    Tiempo Temperatura Precipitaciones Viento Presión Humedad
    00:00 +9°C° 0 mm 0 mps 671 mmHg 88%
    01:00 +9°C° 0 mm 0 mps 671 mmHg 89%
    02:00 +9°C° 0 mm 0 mps 671 mmHg 90%
    03:00 +10°C° 0 mm 1 mps 671 mmHg 90%
    04:00 +10°C° 0 mm 0 mps 671 mmHg 88%
    05:00 +11°C° 0 mm 0 mps 672 mmHg 85%
    06:00 +13°C° 0 mm 0 mps 672 mmHg 82%
    07:00 +15°C° 0 mm 1 mps 673 mmHg 74%
    08:00 +18°C° 0 mm 1 mps 673 mmHg 66%
    09:00 +20°C° 0 mm 1 mps 673 mmHg 58%
    10:00 +20°C° 0 mm 1 mps 673 mmHg 55%
    11:00 +20°C° 0 mm 2 mps 673 mmHg 53%
    12:00 +21°C° 0 mm 2 mps 673 mmHg 51%
    13:00 +20°C° 0.2 mm 2 mps 673 mmHg 54%
    14:00 +20°C° 0.2 mm 2 mps 673 mmHg 58%
    15:00 +19°C° 0.2 mm 2 mps 672 mmHg 62%
    16:00 +19°C° 0.5 mm 2 mps 672 mmHg 70%
    17:00 +18°C° 0.5 mm 2 mps 672 mmHg 77%
    18:00 +18°C° 0.5 mm 1 mps 672 mmHg 84%
    19:00 +16°C° 0.4 mm 1 mps 672 mmHg 85%
    20:00 +14°C° 0.4 mm 1 mps 672 mmHg 87%
    21:00 +13°C° 0.4 mm 1 mps 672 mmHg 88%
    22:00 +12°C° 0.3 mm 0 mps 672 mmHg 88%
    23:00 +12°C° 0.3 mm 0 mps 672 mmHg 88%

    Mañana, 2 Junio, Martes

    Tiempo Temperatura Precipitaciones Viento Presión Humedad
    00:00 +12°C° 0.3 mm 0 mps 672 mmHg 88%
    01:00 +11°C° 0.1 mm 0 mps 671 mmHg 88%
    02:00 +11°C° 0.1 mm 0 mps 671 mmHg 88%
    03:00 +11°C° 0.1 mm 0 mps 671 mmHg 89%
    04:00 +13°C° 0 mm 1 mps 671 mmHg 86%
    05:00 +14°C° 0 mm 1 mps 671 mmHg 83%
    06:00 +15°C° 0 mm 1 mps 672 mmHg 80%
    07:00 +18°C° 0.3 mm 1 mps 672 mmHg 76%
    08:00 +19°C° 0.3 mm 1 mps 672 mmHg 71%
    09:00 +19°C° 0.3 mm 2 mps 672 mmHg 67%
    10:00 +19°C° 0.8 mm 2 mps 672 mmHg 67%
    11:00 +20°C° 0.8 mm 2 mps 671 mmHg 67%
    12:00 +20°C° 0.8 mm 2 mps 671 mmHg 67%
    13:00 +20°C° 0.9 mm 2 mps 671 mmHg 66%
    14:00 +20°C° 0.9 mm 2 mps 671 mmHg 65%
    15:00 +20°C° 0.9 mm 2 mps 670 mmHg 64%
    16:00 +20°C° 0.5 mm 2 mps 670 mmHg 69%
    17:00 +20°C° 0.5 mm 1 mps 670 mmHg 74%
    18:00 +19°C° 0.5 mm 1 mps 669 mmHg 78%
    19:00 +16°C° 0.2 mm 1 mps 669 mmHg 81%
    20:00 +15°C° 0.2 mm 1 mps 669 mmHg 84%
    21:00 +13°C° 0.2 mm 1 mps 669 mmHg 87%
    22:00 +12°C° 0 mm 1 mps 668 mmHg 87%
    23:00 +12°C° 0 mm 1 mps 668 mmHg 87%

    Pasado mañana, 3 Junio, Miércoles

    Tiempo Temperatura Precipitaciones Viento Presión Humedad
    00:00 +12°C° 0 mm 1 mps 667 mmHg 87%
    01:00 +11°C° 0 mm 1 mps 667 mmHg 86%
    02:00 +11°C° 0 mm 1 mps 667 mmHg 85%
    03:00 +11°C° 0 mm 1 mps 667 mmHg 84%
    04:00 +12°C° 0 mm 1 mps 667 mmHg 80%
    05:00 +13°C° 0 mm 0 mps 667 mmHg 75%
    06:00 +14°C° 0 mm 0 mps 667 mmHg 70%
    07:00 +18°C° 0 mm 1 mps 667 mmHg 65%
    08:00 +19°C° 0 mm 1 mps 668 mmHg 60%
    09:00 +21°C° 0 mm 1 mps 668 mmHg 55%
    10:00 +20°C° 0.1 mm 2 mps 667 mmHg 56%
    11:00 +20°C° 0.1 mm 2 mps 667 mmHg 57%
    12:00 +20°C° 0.1 mm 2 mps 667 mmHg 58%
    13:00 +20°C° 0.4 mm 2 mps 666 mmHg 62%
    14:00 +19°C° 0.4 mm 2 mps 666 mmHg 66%
    15:00 +19°C° 0.4 mm 2 mps 666 mmHg 70%
    16:00 +18°C° 0.7 mm 2 mps 665 mmHg 76%
    17:00 +18°C° 0.7 mm 1 mps 665 mmHg 82%
    18:00 +16°C° 0.7 mm 1 mps 665 mmHg 87%
    19:00 +15°C° 0.5 mm 1 mps 665 mmHg 89%
    20:00 +15°C° 0.5 mm 1 mps 665 mmHg 90%
    21:00 +13°C° 0.5 mm 0 mps 665 mmHg 92%
    22:00 +13°C° 0.1 mm 1 mps 665 mmHg 93%
    23:00 +13°C° 0.1 mm 1 mps 664 mmHg 93%

    4 Junio, Jueves

    Tiempo Temperatura Precipitaciones Viento Presión Humedad
    00:00 +12°C° 0.1 mm 1 mps 664 mmHg 94%
    01:00 +12°C° 0 mm 1 mps 664 mmHg 93%
    02:00 +12°C° 0 mm 1 mps 663 mmHg 93%
    03:00 +11°C° 0 mm 0 mps 663 mmHg 92%
    04:00 +13°C° 0.1 mm 1 mps 663 mmHg 90%
    05:00 +14°C° 0.1 mm 1 mps 663 mmHg 88%
    06:00 +15°C° 0.1 mm 1 mps 663 mmHg 86%
    07:00 +15°C° 0.5 mm 1 mps 663 mmHg 87%
    08:00 +15°C° 0.5 mm 1 mps 663 mmHg 89%
    09:00 +15°C° 0.5 mm 2 mps 663 mmHg 90%
    10:00 +15°C° 1 mm 2 mps 663 mmHg 91%
    11:00 +15°C° 1 mm 1 mps 663 mmHg 92%
    12:00 +15°C° 1 mm 1 mps 663 mmHg 92%
    13:00 +15°C° 1.9 mm 1 mps 663 mmHg 90%
    14:00 +16°C° 1.9 mm 1 mps 663 mmHg 88%
    15:00 +16°C° 1.9 mm 1 mps 662 mmHg 86%
    16:00 +15°C° 1.9 mm 1 mps 662 mmHg 89%
    17:00 +14°C° 1.9 mm 1 mps 662 mmHg 92%
    18:00 +14°C° 1.9 mm 1 mps 662 mmHg 95%
    19:00 +13°C° 1.3 mm 2 mps 662 mmHg 95%
    20:00 +13°C° 1.3 mm 2 mps 662 mmHg 95%
    21:00 +12°C° 1.3 mm 2 mps 662 mmHg 95%
    22:00 +12°C° 0.6 mm 1 mps 662 mmHg 95%
    23:00 +12°C° 0.6 mm 1 mps 661 mmHg 95%

    5 Junio, Viernes

    Tiempo Temperatura Precipitaciones Viento Presión Humedad
    00:00 +12°C° 0.6 mm 1 mps 661 mmHg 94%
    01:00 +12°C° 0.7 mm 1 mps 661 mmHg 94%
    02:00 +12°C° 0.7 mm 2 mps 661 mmHg 94%
    03:00 +12°C° 0.7 mm 2 mps 661 mmHg 94%
    04:00 +13°C° 0.5 mm 2 mps 661 mmHg 93%
    05:00 +13°C° 0.5 mm 2 mps 661 mmHg 92%
    06:00 +13°C° 0.5 mm 2 mps 661 mmHg 92%
    07:00 +14°C° 0.4 mm 2 mps 661 mmHg 89%
    08:00 +14°C° 0.4 mm 2 mps 662 mmHg 86%
    09:00 +15°C° 0.4 mm 2 mps 662 mmHg 84%
    10:00 +15°C° 0.3 mm 2 mps 662 mmHg 79%
    11:00 +16°C° 0.3 mm 2 mps 662 mmHg 75%
    12:00 +17°C° 0.3 mm 2 mps 662 mmHg 71%
    13:00 +18°C° 0.1 mm 2 mps 662 mmHg 68%
    14:00 +18°C° 0.1 mm 2 mps 662 mmHg 64%
    15:00 +19°C° 0.1 mm 2 mps 662 mmHg 61%
    16:00 +18°C° 0.2 mm 2 mps 662 mmHg 66%
    17:00 +17°C° 0.2 mm 2 mps 662 mmHg 71%
    18:00 +17°C° 0.2 mm 2 mps 662 mmHg 75%
    19:00 +15°C° 0.1 mm 2 mps 663 mmHg 80%
    20:00 +14°C° 0.1 mm 2 mps 663 mmHg 84%
    21:00 +12°C° 0.1 mm 2 mps 663 mmHg 88%
    22:00 +12°C° 0 mm 2 mps 663 mmHg 88%
    23:00 +10°C° 0 mm 2 mps 663 mmHg 89%

    6 Junio, Sábado

    Tiempo Temperatura Precipitaciones Viento Presión Humedad
    00:00 +10°C° 0 mm 2 mps 663 mmHg 90%
    01:00 +10°C° 0 mm 1 mps 663 mmHg 89%
    02:00 +10°C° 0 mm 1 mps 662 mmHg 88%
    03:00 +10°C° 0 mm 1 mps 662 mmHg 87%
    04:00 +10°C° 0 mm 2 mps 663 mmHg 85%
    05:00 +12°C° 0 mm 2 mps 663 mmHg 82%
    06:00 +14°C° 0 mm 2 mps 664 mmHg 80%
    07:00 +15°C° 0 mm 2 mps 664 mmHg 75%
    08:00 +16°C° 0 mm 2 mps 665 mmHg 70%
    09:00 +17°C° 0 mm 2 mps 665 mmHg 65%
    10:00 +18°C° 0.1 mm 2 mps 665 mmHg 66%
    11:00 +18°C° 0.1 mm 2 mps 665 mmHg 66%
    12:00 +19°C° 0.1 mm 3 mps 665 mmHg 66%
    13:00 +19°C° 0.1 mm 3 mps 665 mmHg 67%
    14:00 +18°C° 0.1 mm 3 mps 665 mmHg 68%
    15:00 +18°C° 0.1 mm 3 mps 665 mmHg 69%
    16:00 +17°C° 0.1 mm 3 mps 665 mmHg 72%
    17:00 +17°C° 0.1 mm 2 mps 665 mmHg 75%
    18:00 +16°C° 0.1 mm 2 mps 665 mmHg 78%
    19:00 +14°C° 0 mm 2 mps 665 mmHg 81%
    20:00 +13°C° 0 mm 2 mps 665 mmHg 84%
    21:00 +12°C° 0 mm 2 mps 665 mmHg 87%
    22:00 +10°C° 0 mm 2 mps 665 mmHg 88%
    23:00 +10°C° 0 mm 2 mps 665 mmHg 88%
    Mostrar más